Weather in Costa Dorada

Spain     41°10′28″N   1°29′09″E
temp.,
°C
wind,
m/s
gust,
m/s
humid.,
%
clouds,
%
prec.,
mm/h
press.,
hPa
HPBL,
m
21 april, wed
wed2123:00+12ene3378100 0.0 1014212
02:00+13ne3473100 0.1 1014227
05:00+12nne2376100 0.3 1013176
08:00+11ne3788100 1.8 1013379
11:00+11ne358896 1.4 1014431
14:00+12e4689100 2.2 1014576
17:00+14e567167 0.1 1013910
20:00+12e5882100 0.1 1014630
22 april, thu
thu2223:00+11ene5891100 0.2 1016521
02:00+11ene4789100 0.3 1016532
05:00+10ene4688100 0.1 1015338
08:00+11ene4884100 0.1 1015608
11:00+12e5878100 0.3 1016736
14:00+12e5873100 0.6 1017781
17:00+14ese566566 0.0 1016956
20:00+13e357391 0.0 1017590
23 april, fri
fri2323:00+12ene128031 0.0 1019220
02:00+10nnw22854 0.0 101946
05:00+10n22833 0.0 101833
08:00+10n22762 0.0 101951
11:00+16ese34450 0.0 10201021
14:00+18sse45420 0.0 10201091
17:00+18se33430 0.0 1019871
20:00+15s23590 0.0 1020299
24 april, sat
sat2423:00+12nne11725 0.0 1021103
02:00+11n227313 0.0 102137
05:00+10n2274100 0.0 102043
08:00+11nne2273100 0.0 102067
11:00+15ese3556100 0.0 1021644
14:00+18ese554744 0.0 1020995
17:00+18se444710 0.0 1019786
20:00+15ese2361100 0.0 1019224
25 april, sun
sun2523:00+13ne2268100 0.0 1020117
02:00+12nne336588 0.0 101882
05:00+11nne3367100 0.0 101772
08:00+12nne356393 0.0 1017174
11:00+17ene5642100 0.0 1017658
14:00+19e79385 0.0 1015954
17:00+19e810464 0.0 1014845
20:00+15ene8126988 0.0 1013622